Time,TemperatureF,DewpointF,PressureIn,WindDirection,WindDirectionDegrees,WindSpeedMPH,WindSpeedGustMPH,Humidity,HourlyPrecipIn,Conditions,Clouds,dailyrainin,SolarRadiationWatts/m^2,SoftwareType,DateUTC
2013-03-03 00:15:00,34.8,25.6,30.56,ESE,111,0.0,1.0,69,0.00,CLR,SKC,0.00,0.0,WeatherDisplay:10.37,2013-03-03 07:15:00,
2013-03-03 00:45:00,35.1,25.6,30.54,ESE,111,1.0,3.0,68,0.00,CLR,SKC,0.00,0.0,WeatherDisplay:10.37,2013-03-03 07:45:00,
2013-03-03 01:15:00,34.8,26.4,30.53,ESE,111,0.0,1.0,71,0.00,CLR,SKC,0.00,0.0,WeatherDisplay:10.37,2013-03-03 08:15:00,
2013-03-03 01:45:00,34.6,26.2,30.52,ESE,111,2.0,3.0,71,0.00,CLR,SKC,0.00,0.0,WeatherDisplay:10.37,2013-03-03 08:45:00,
2013-03-03 02:15:00,34.9,26.1,30.51,ESE,111,0.0,1.0,70,0.00,CLR,SKC,0.00,0.0,WeatherDisplay:10.37,2013-03-03 09:15:00,
2013-03-03 02:45:00,34.3,25.2,30.49,ESE,111,0.0,1.0,69,0.00,CLR,SKC,0.00,0.0,WeatherDisplay:10.37,2013-03-03 09:45:00,
2013-03-03 03:15:00,35.2,26.0,30.46,ESE,111,0.0,1.0,69,0.00,CLR,SKC,0.00,0.0,WeatherDisplay:10.37,2013-03-03 10:15:00,
2013-03-03 03:45:00,34.1,25.6,30.45,ESE,111,0.0,1.0,71,0.00,CLR,SKC,0.00,0.0,WeatherDisplay:10.37,2013-03-03 10:45:00,
2013-03-03 04:15:00,35.1,25.6,30.44,ESE,111,0.0,1.0,68,0.00,CLR,SKC,0.00,0.0,WeatherDisplay:10.37,2013-03-03 11:15:00,
2013-03-03 04:45:00,34.4,25.6,30.44,ESE,111,0.0,0.0,70,0.00,CLR,SKC,0.00,0.0,WeatherDisplay:10.37,2013-03-03 11:45:00,
2013-03-03 05:15:00,36.3,26.7,30.42,ESE,111,2.0,4.0,68,0.00,CLR,SKC,0.00,0.0,WeatherDisplay:10.37,2013-03-03 12:15:00,
2013-03-03 05:45:00,35.6,26.4,30.41,ESE,111,0.0,2.0,69,0.00,CLR,SKC,0.00,0.0,WeatherDisplay:10.37,2013-03-03 12:45:00,
2013-03-03 06:15:00,37.0,27.0,30.40,ESE,111,1.0,3.0,67,0.00,CLR,SKC,0.00,0.0,WeatherDisplay:10.37,2013-03-03 13:15:00,
2013-03-03 06:45:00,33.5,26.7,30.40,NNW,337,0.0,1.0,76,0.00,OVC,SKC,0.00,0.0,WeatherDisplay:10.37,2013-03-03 13:45:00,
2013-03-03 07:15:00,35.5,27.4,30.39,ENE,64,0.0,3.0,72,0.00,SCT,SKC,0.00,16.0,WeatherDisplay:10.37,2013-03-03 14:15:00,
2013-03-03 07:45:00,34.4,27.0,30.39,NW,323,0.0,2.0,74,0.00,BKN,SKC,0.00,35.0,WeatherDisplay:10.37,2013-03-03 14:45:00,
2013-03-03 08:15:00,35.3,27.9,30.39,North,9,0.0,3.0,74,0.00,SCT,SKC,0.00,84.0,WeatherDisplay:10.37,2013-03-03 15:15:00,
2013-03-03 08:45:00,38.0,28.4,30.39,North,9,1.0,2.0,68,0.00,FEW,SKC,0.00,244.0,WeatherDisplay:10.37,2013-03-03 15:45:00,
2013-03-03 09:16:00,42.1,28.4,30.38,North,9,0.0,2.0,58,0.00,SCT,SKC,0.00,230.0,WeatherDisplay:10.37,2013-03-03 16:16:00,
2013-03-03 09:45:00,42.0,29.1,30.36,North,360,0.0,3.0,60,0.00,BKN,SKC,0.00,218.0,WeatherDisplay:10.37,2013-03-03 16:45:00,
2013-03-03 10:15:00,45.6,28.5,30.35,North,349,0.0,1.0,51,0.00,SCT,SKC,0.00,381.0,WeatherDisplay:10.37,2013-03-03 17:15:00,
2013-03-03 10:45:00,45.5,26.9,30.34,ENE,61,0.0,2.0,48,0.00,SCT,SKC,0.00,383.0,WeatherDisplay:10.37,2013-03-03 17:45:00,
2013-03-03 11:15:00,47.3,27.6,30.33,SE,145,2.0,5.0,46,0.00,FEW,SKC,0.00,483.0,WeatherDisplay:10.37,2013-03-03 18:15:00,
2013-03-03 11:45:00,50.1,27.3,30.33,SE,143,0.0,1.0,41,0.00,SCT,SKC,0.00,362.0,WeatherDisplay:10.37,2013-03-03 18:45:00,
2013-03-03 12:15:00,50.9,29.7,30.31,SE,143,0.0,2.0,44,0.00,SCT,SKC,0.00,462.0,WeatherDisplay:10.37,2013-03-03 19:15:00,
2013-03-03 12:45:00,48.6,28.7,30.30,SE,141,0.0,1.0,46,0.00,BKN,SKC,0.00,294.0,WeatherDisplay:10.37,2013-03-03 19:45:00,
2013-03-03 13:15:00,50.2,28.6,30.29,SE,132,1.0,4.0,43,0.00,BKN,SKC,0.00,246.0,WeatherDisplay:10.37,2013-03-03 20:15:00,
2013-03-03 13:45:00,49.2,28.2,30.28,WSW,244,3.0,12.0,44,0.00,BKN,SKC,0.00,176.0,WeatherDisplay:10.37,2013-03-03 20:45:00,
2013-03-03 14:15:00,47.6,29.4,30.28,WSW,250,1.0,4.0,49,0.00,BKN,SKC,0.00,151.0,WeatherDisplay:10.37,2013-03-03 21:15:00,
2013-03-03 14:45:00,46.5,29.8,30.28,WSW,238,5.0,10.0,52,0.00,BKN,SKC,0.00,125.0,WeatherDisplay:10.37,2013-03-03 21:45:00,
2013-03-03 15:15:00,47.4,29.6,30.28,South,174,6.0,10.0,50,0.00,BKN,SKC,0.00,139.0,WeatherDisplay:10.37,2013-03-03 22:15:00,
2013-03-03 15:45:00,46.8,30.1,30.28,SSW,192,6.0,10.0,52,0.00,BKN,SKC,0.00,95.0,WeatherDisplay:10.37,2013-03-03 22:45:00,
2013-03-03 16:15:00,45.4,31.9,30.27,South,183,5.0,8.0,59,0.00,BKN,SKC,0.00,141.0,WeatherDisplay:10.37,2013-03-03 23:15:00,
2013-03-03 16:46:00,44.2,31.6,30.27,South,181,1.0,3.0,61,0.00,BKN,SKC,0.00,111.0,WeatherDisplay:10.37,2013-03-03 23:46:00,
2013-03-03 17:15:00,43.9,32.1,30.27,South,182,0.0,1.0,63,0.00,BKN,SKC,0.00,65.0,WeatherDisplay:10.37,2013-03-04 00:15:00,
2013-03-03 17:45:00,44.1,32.3,30.26,South,182,1.0,2.0,63,0.00,FEW,SKC,0.00,47.0,WeatherDisplay:10.37,2013-03-04 00:45:00,
2013-03-03 18:15:00,42.2,32.4,30.26,South,182,0.0,1.0,68,0.00,OVC,SKC,0.00,5.0,WeatherDisplay:10.37,2013-03-04 01:15:00,
2013-03-03 18:46:00,41.4,32.4,30.26,South,182,1.0,2.0,70,0.00,OVC,SKC,0.00,0.0,WeatherDisplay:10.37,2013-03-04 01:46:00,
2013-03-03 19:16:00,41.8,32.0,30.26,South,182,0.0,0.0,68,0.00,CLR,SKC,0.00,0.0,WeatherDisplay:10.37,2013-03-04 02:16:00,
2013-03-03 19:46:00,42.1,32.3,30.25,South,182,3.0,7.0,68,0.00,CLR,SKC,0.00,0.0,WeatherDisplay:10.37,2013-03-04 02:46:00,
2013-03-03 20:16:00,41.7,32.7,30.25,South,177,3.0,6.0,70,0.00,CLR,SKC,0.00,0.0,WeatherDisplay:10.37,2013-03-04 03:16:00,
2013-03-03 20:46:00,41.4,32.7,30.25,South,174,2.0,6.0,71,0.00,CLR,SKC,0.00,0.0,WeatherDisplay:10.37,2013-03-04 03:46:00,
2013-03-03 21:16:00,41.3,33.0,30.25,South,172,1.0,4.0,72,0.00,CLR,SKC,0.00,0.0,WeatherDisplay:10.37,2013-03-04 04:16:00,
2013-03-03 21:46:00,41.1,33.1,30.25,South,191,3.0,6.0,73,0.00,CLR,SKC,0.00,0.0,WeatherDisplay:10.37,2013-03-04 04:46:00,
2013-03-03 22:16:00,40.7,33.4,30.25,SSW,195,2.0,7.0,75,0.00,CLR,SKC,0.00,0.0,WeatherDisplay:10.37,2013-03-04 05:16:00,
2013-03-03 22:46:00,41.1,33.8,30.24,SSW,196,5.0,8.0,75,0.00,CLR,SKC,0.00,0.0,WeatherDisplay:10.37,2013-03-04 05:46:00,
2013-03-03 23:16:00,40.5,33.9,30.24,South,190,2.0,7.0,77,0.00,CLR,SKC,0.00,0.0,WeatherDisplay:10.37,2013-03-04 06:16:00,
2013-03-03 23:46:00,39.7,34.0,30.25,SSW,205,0.0,3.0,80,0.00,CLR,SKC,0.00,0.0,WeatherDisplay:10.37,2013-03-04 06:46:00,